Hourly Data Report for November 01, 2019

All times are specified in Local Standard Time (LST). Add 1 hour to adjust for Daylight Saving Time where and when it is observed.

SAINT JOHN A
NEW BRUNSWICK
Current Station Operator: NAVCAN

45°18'58.000" N
65°53'24.000" W
108.80 m
8104901
71609
YSJ

Download Data

Hourly Data (November 2019)
Hourly Data Report for November 1, 2019
TIME Temp Definition
°C
Dew Point Definition
°C
Rel Hum Definition
%
Wind Dir Definition
10's deg

Wind Spd Definition
km/h
Visibility Definition
km
Stn Press Definition
kPa
Hmdx Definition


Wind Chill Definition


Weather Definition


00:00 15.7 14.6 93 20 51 4.8 99.40     Rain,Fog
01:00 15.8 14.4 91 20 55 9.7 99.31     Rain,Fog
02:00 15.7 14.7 93 20 47 8.1 99.26     Rain,Fog
03:00 16.1 14.8 92 20 57 4.8 99.12     Rain,Fog
04:00 16.1 15.1 94 20 56 4.8 99.00     Rain,Fog
05:00 16.9 15.2 89 20 59 4.8 98.87     Rain,Fog
06:00 16.2 15.0 92 19 61 6.4 98.74     Rain,Fog
07:00 17.0 15.2 89 20 55 8.1 98.70     Rain,Fog
08:00 16.7 15.0 90 19 55 8.1 98.57     Rain,Fog
09:00 16.3 15.3 94 20 55 8.1 98.50     Rain,Fog
10:00 15.4 15.3 100 21 64 4.8 98.45     Rain,Fog
11:00 12.6 12.5 99 21 54 8.1 98.47     Rain,Fog
12:00 13.4 10.8 84 22 48 16.1 98.57     LegendNANA
13:00 12.6 7.0 68 22 51 16.1 98.67     LegendNANA
14:00 12.7 6.2 65 23 50 16.1 98.78     Mainly Clear
15:00 11.7 4.5 61 22 43 16.1 98.97     LegendNANA
16:00 11.6 4.0 59 23 34 16.1 99.17     LegendNANA
17:00 10.6 5.5 71 23 29 24.1 99.32     Mainly Clear
18:00 10.3 -0.4 47 25 20 24.1 99.51     LegendNANA
19:00 9.7 -3.0 41 26 30 24.1 99.67     LegendNANA
20:00 8.4 -4.2 41 27 34 24.1 99.81     Clear
21:00 7.0 -3.6 47 26 19 24.1 99.98     LegendNANA
22:00 6.4 -3.5 49 26 30 24.1 100.10     LegendNANA
23:00 5.4 -3.2 54 28 28 24.1 100.17     Clear

Notes on Data Quality.

Legend

  • E = Estimated
  • M = Missing
  • NA = Not Available
Date modified: